Flag for U.S.A. Weather past 2 weeks in Los Angeles, California, U.S.A.

Now
70 °F

Sunny.


Feels Like: 76 °F
Forecast: 58 / 77 °F
Wind: 3 mph from North

Location: Los Angeles / USC Campus Downtown

Current Time: May 28, 2015 at 3:43:19 PM

Latest Report: May 28, 2015 at 2:47 PM


Visibility: 10 mi

Pressure: 29.94 "Hg

Humidity: 61%

Dew point: 56 °F

Location of Los AngelesLocation

Historic Weather in Los Angeles — Graph

°F

Los Angeles temperature yesterday

Maximum temperature yesterday: 71 °F (at 12:47 PM)
Minimum temperature yesterday: 59 °F (at 4:47 AM)
Average temperature yesterday: 63 °F

Past Weeks' High & Low Weather Summary

 TemperatureHumidityPressure
High74 °F (May 28, 1:47 PM)93% (May 14, 9:47 PM)30.08 "Hg (May 14, 9:47 PM)
Low53 °F (May 14, 9:47 PM)47% (May 20, 12:47 PM)29.83 "Hg (May 15, 4:47 PM)
Average62 °F69%29.97 "Hg
* Reported May 13 1:47 PM — May 28 1:47 PM, Los Angeles, Weather by CustomWeather, © 2015

Note: Actual official high and low records may vary slightly from our data, if they occured in-between our weather recording intervals... More about our weather records

Advertising

Los Angeles weather history for previous 24 hours

 ConditionsComfort  
Time TempWeatherWind HumidityBarometerVisibility
1:47 PM
Thu, May 28
74 °FSunny.3 mph53%29.94 "Hg9 mi
12:47 PM72 °FSunny.3 mph57%29.96 "Hg8 mi
11:47 AM71 °FSunny.5 mph57%29.98 "Hg5 mi
10:47 AM67 °FOvercast.No wind66%29.99 "Hg4 mi
9:47 AM63 °FOvercast.No wind75%29.99 "Hg4 mi
8:47 AM62 °FOvercast.No wind78%29.99 "Hg5 mi
7:47 AM60 °FOvercast.3 mph80%29.99 "Hg5 mi
6:47 AM59 °FFog.No wind87%29.98 "Hg5 mi
5:47 AM59 °FLow clouds.No wind84%29.96 "Hg8 mi
4:47 AM58 °FLow clouds.3 mph87%29.96 "Hg10 mi
3:47 AM58 °FLow clouds.No wind87%29.95 "Hg10 mi
2:47 AM58 °FClear.No wind87%29.95 "Hg7 mi
1:47 AM58 °FClear.No wind87%29.96 "Hg10 mi
12:47 AM58 °FClear.No wind84%29.98 "Hg10 mi
11:47 PM
Wed, May 27
59 °FClear.No wind81%29.99 "Hg10 mi
10:47 PM59 °FClear.3 mph81%29.98 "Hg10 mi
9:47 PM60 °FClear.No wind78%29.97 "Hg10 mi
8:47 PM61 °FSunny.5 mph78%29.97 "Hg10 mi
7:47 PM62 °FSunny.7 mph75%29.96 "Hg10 mi
6:47 PM66 °FSunny.3 mph65%29.95 "Hg10 mi
5:47 PM67 °FSunny.7 mph66%29.94 "Hg10 mi
4:47 PM68 °FSunny.8 mph63%29.94 "Hg10 mi
3:47 PM69 °FSunny.3 mph59%29.95 "Hg10 mi
Weather by CustomWeather, © 2015

See weather overviewHow to use our weather pages